Lexington Weather

Lexington, Massachusetts, USA

56°F
10/22/2020 8:20pm 
  • Lexington Conditions: Mostly cloudy
  • Temperature: 55.8°F / 13.2°C 
  • Dew Point: 54.3°F 
  • Relative Humidity: 95
  • Wind: Calm, 10-min avg: Calm, gust: None
  • Barometer: 30.22 in Steady
  • Visibility: 7 miles
  • Rain Today: 0.00 in
  •   
Southeast Middlesex County - Special Weather Statement
 - SEE ALL NEARBY ALERTS -

Regional Weather Roundup
for Boston / Norton, MA

        
000
ASUS41 KBOX 160204
RWRBOX

REGIONAL WEATHER ROUNDUP
NATIONAL WEATHER SERVICE BOSTON/NORTON MA
1000 PM EDT THU OCT 15 2020

NOTE:  "FAIR" INDICATES FEW OR NO CLOUDS BELOW 12,000 FEET WITH NO 
SIGNIFICANT WEATHER AND/OR OBSTRUCTIONS TO VISIBILITY.

MAZALL-160300-
EASTERN MASSACHUSETTS
  
CITY           SKY/WX    TMP DP  RH WIND       PRES   REMARKS
BOSTON         PTCLDY    62  56  80 S15       30.03R                  
BEVERLY        CLEAR     62  56  80 S9        30.02R                  
LAWRENCE       MOCLDY    62  55  77 S6        30.04R                  
BEDFORD        CLEAR     62  56  80 S10       30.01R                  
BLUE HILL        N/A     60  56  86 S22G32    30.02R                  
NORWOOD        CLEAR     63  57  81 S9        30.03R                  
MARSHFIELD     PTCLDY    64  61  88 S8G17     30.05R                  
PLYMOUTH       CLEAR     62  57  83 S6        30.06R                  
TAUNTON        CLEAR     63  57  81 VRB6      30.05R                  
NEW BEDFORD    CLEAR     64  59  83 S10       30.05R                  
$$

MAZALL-160300-
CAPE COD AND THE ISLANDS
  
CITY           SKY/WX    TMP DP  RH WIND       PRES   REMARKS
FALMOUTH       NOT AVBL                                               
HYANNIS        CLEAR     63  59  87 VRB7      30.07R                  
CHATHAM        CLEAR     60  57  89 S8        30.10R                  
PROVINCETOWN   CLEAR     61  58  90 S13       30.08R                  
NANTUCKET      CLEAR    N/A N/A N/A S13       30.10R                  
MARTHAS VNYRD  CLEAR     63  60  90 S13       30.08R                  
$$
 
MAZALL-160300-
CENTRAL AND WESTERN MASSACHUSETTS
  
CITY           SKY/WX    TMP DP  RH WIND       PRES   REMARKS
WORCESTER      CLOUDY    61  55  81 SW16G23   30.02R                  
FITCHBURG      MOCLDY    58  52  80 CALM      30.02R                  
ORANGE         MOCLDY    60  53  77 S10       30.01R                  
SPRINGFIELD    PTCLDY    61  56  82 S9        29.98S                  
WESTFIELD      CLEAR     59  54  83 S12       29.99R                  
NORTH ADAMS    CLEAR     61  49  64 N7        29.95R                  
PITTSFIELD     CLEAR     59  49  69 S16G29    29.95R                  
$$
 
RIZALL-160300-
RHODE ISLAND
  
CITY           SKY/WX    TMP DP  RH WIND       PRES   REMARKS
PROVIDENCE     PTCLDY    60  58  92 SW3       30.05R                  
NEWPORT        CLEAR     63  60  90 S10       30.05R                  
BLOCK ISLAND   CLEAR     64  60  87 S14       30.06R                  
SMITHFIELD     CLEAR     59  59 100 VRB5        N/A                   
WESTERLY       CLEAR     65  59  81 S9        30.04R                  
$$
 
CTZALL-160300-
CONNECTICUT
  
CITY           SKY/WX    TMP DP  RH WIND       PRES   REMARKS
BRADLEY INTL   MOCLDY    63  56  78 S10       30.00R                  
HARTFORD       MOCLDY    62  56  80 SE3       30.00R                  
BRIDGEPORT     CLOUDY    67  61  81 SW12      30.01R                  
DANBURY        PTCLDY    62  58  86 S9        30.01R                  
GROTON         NOT AVBL                                               
NEW HAVEN      MOCLDY    68  62  81 SW7       30.02R                  
CHESTER        NOT AVBL                                               
MERIDEN        MOCLDY    62  57  83 CALM      30.01R                  
WILLIMANTIC    CLEAR     58  56  93 CALM      30.03R                  
OXFORD         CLOUDY    60  59  96 S7        30.02R                  
$$

MEZ002-015-021-024-NHZ003-005-008-011-012-014-VTZ005-008-160300-
NORTHERN NEW ENGLAND
  
CITY           SKY/WX    TMP DP  RH WIND       PRES   REMARKS
PORTLAND ME    PTCLDY    58  57  97 S14G22    30.02R                  
BANGOR ME      PTCLDY    59  54  83 S14G23    30.03S                  
CONCORD NH     CLEAR     59  48  67 S6        29.99R                  
MANCHESTER NH  PTCLDY    62  51  67 S9        30.00R                  
NASHUA NH      MOCLDY    56  54  93 CALM      30.01R                  
PORTSMOUTH NH  PTCLDY    57  53  87 SE7       30.00                   
JAFFREY NH     PTCLDY    57  49  74 S9        30.01R                  
KEENE NH       PTCLDY    58  50  75 S5        30.00R                  
BURLINGTON VT  CLOUDY    62  50  64 N10       29.90R                  
MT. WASHINGTON PTCLDY    43  37  81 SW40G51     N/A  WCI  31          
$$

NYZ052-076-160300-
EASTERN NEW YORK
  
CITY           SKY/WX    TMP DP  RH WIND       PRES   REMARKS
ALBANY         PTCLDY    59  52  77 SW9       29.95R                  
NEW YORK CITY  MOCLDY    66  58  75 S9        30.00R                  
$$
 
ANZALL-160300-
MARINE OBSERVATIONS
  
STATION/POSITION TIME  TEMP    WIND        PRES    VSBY  WAVE
                       AIR SEA DIR/SP/G                  HT/PER
                 (UTC) (F)     (DEG/KT/KT) (MB)    (MI)  (FT/S)
BOSTON BUOY      0150   60 57  140/ 16/ 17 1015.8R         3/ 8
BUZZARDS BAY     0100          180/ 18/ 20 1018.1R
NANTUCKET SOUND  0150      62  170/ 16/ 19   N/A           2/ 3
MASS BAY-STELLWA 0104   61 58  180/ 19/ 21 1015.4S  1 7/8  5/11
ISLE OF SHOALS   NOT AVBL
S OF BLOCK IS    0126      64                N/A           4/ 5
$$

......................KEY.........................
  SKY/WX - SKY CONDITION/PRESENT WEATHER
  TMP    - TEMPERATURE IN FAHRENHEIT
  DWPT   - DEWPOINT IN FAHRENHEIT
  RH     - RELATIVE HUMIDITY IN PERCENT
  WIND   - DIRECTION AND SPEED IN MPH
  PRES   - MEAN SEA LEVEL PRESSURE IN INCHES OF HG
  WCI    - WIND CHILL INDEX
  VSB    - VISIBILITY IN MILES
  HX     - HEAT INDEX
  TC     - TEMPERATURE IN CELSIUS
  VRB    - VARIABLE WIND DIRECTION
  N/A    - NOT AVAILABLE
  
      

Other recent Regional Weather Roundups

Thu Oct 22, 8:04pm

Thu Oct 22, 7:05pm

Thu Oct 22, 6:04pm

Thu Oct 22, 5:04pm

Thu Oct 22, 4:05pm

Thu Oct 22, 3:04pm

Thu Oct 22, 2:05pm

Thu Oct 22, 1:04pm

Thu Oct 22, 12:04pm

Thu Oct 22, 11:04am

Thu Oct 22, 10:05am

Thu Oct 22, 9:04am

Thu Oct 22, 8:05am

Thu Oct 22, 7:04am

Thu Oct 22, 6:04am

Thu Oct 22, 5:04am

Thu Oct 22, 4:04am

Thu Oct 22, 3:04am

Thu Oct 22, 2:04am

Thu Oct 22, 1:04am

Thu Oct 22, 12:04am

Wed Oct 21, 11:05pm

Wed Oct 21, 10:04pm

Wed Oct 21, 9:04pm

Wed Oct 21, 8:04pm

Wed Oct 21, 7:04pm

Wed Oct 21, 6:04pm

Wed Oct 21, 5:05pm

Wed Oct 21, 4:04pm

Wed Oct 21, 3:04pm

Wed Oct 21, 2:05pm

Wed Oct 21, 1:04pm

Wed Oct 21, 12:04pm

Wed Oct 21, 11:04am

Wed Oct 21, 10:04am

Wed Oct 21, 9:04am

Wed Oct 21, 8:04am

Wed Oct 21, 7:04am

Wed Oct 21, 6:04am

Wed Oct 21, 5:04am

Wed Oct 21, 4:04am

Wed Oct 21, 3:04am

Wed Oct 21, 2:04am

Wed Oct 21, 1:04am

Wed Oct 21, 12:04am

Tue Oct 20, 11:05pm

Tue Oct 20, 10:04pm

Tue Oct 20, 9:04pm

Tue Oct 20, 8:05pm

Tue Oct 20, 7:04pm

Tue Oct 20, 6:04pm

Tue Oct 20, 5:05pm

Tue Oct 20, 4:04pm

Tue Oct 20, 3:05pm

Tue Oct 20, 2:07pm

Tue Oct 20, 1:04pm

Tue Oct 20, 12:04pm

Tue Oct 20, 11:04am

Tue Oct 20, 10:05am

Tue Oct 20, 9:04am

Tue Oct 20, 8:04am

Tue Oct 20, 7:04am

Tue Oct 20, 6:04am

Tue Oct 20, 5:04am

Tue Oct 20, 4:04am

Tue Oct 20, 3:04am

Tue Oct 20, 2:04am

Tue Oct 20, 1:04am

Tue Oct 20, 12:04am

Mon Oct 19, 11:04pm

Mon Oct 19, 10:04pm

Mon Oct 19, 9:04pm

Mon Oct 19, 8:04pm

Mon Oct 19, 7:04pm

Mon Oct 19, 6:04pm

Mon Oct 19, 5:04pm

Mon Oct 19, 4:04pm

Mon Oct 19, 3:04pm

Mon Oct 19, 2:04pm

Mon Oct 19, 1:05pm

Mon Oct 19, 12:04pm

Mon Oct 19, 11:04am

Mon Oct 19, 10:04am

Mon Oct 19, 9:04am

Mon Oct 19, 8:04am

Mon Oct 19, 7:04am

Mon Oct 19, 6:04am

Mon Oct 19, 5:04am

Mon Oct 19, 4:04am

Mon Oct 19, 3:04am

Mon Oct 19, 2:04am

Mon Oct 19, 1:04am

Mon Oct 19, 12:05am

Sun Oct 18, 11:04pm

Sun Oct 18, 10:04pm

Sun Oct 18, 9:04pm

Sun Oct 18, 8:04pm

Sun Oct 18, 7:05pm

Sun Oct 18, 6:04pm

Sun Oct 18, 5:05pm

Sun Oct 18, 4:05pm

Sun Oct 18, 3:04pm

Sun Oct 18, 2:05pm

Sun Oct 18, 1:04pm

Sun Oct 18, 12:04pm

Sun Oct 18, 11:04am

Sun Oct 18, 10:04am

Sun Oct 18, 9:04am

Sun Oct 18, 8:04am

Sun Oct 18, 7:04am

Sun Oct 18, 6:04am

Sun Oct 18, 5:04am

Sun Oct 18, 4:04am

Sun Oct 18, 3:04am

Sun Oct 18, 2:04am

Sun Oct 18, 1:04am

Sun Oct 18, 12:04am

Sat Oct 17, 11:05pm

Sat Oct 17, 10:04pm

Sat Oct 17, 9:04pm

Sat Oct 17, 8:04pm

Sat Oct 17, 7:04pm

Sat Oct 17, 6:04pm

Sat Oct 17, 5:05pm

Sat Oct 17, 4:04pm

Sat Oct 17, 3:04pm

Sat Oct 17, 2:05pm

Sat Oct 17, 1:05pm

Sat Oct 17, 12:04pm

Sat Oct 17, 11:05am

Sat Oct 17, 10:04am

Sat Oct 17, 9:04am

Sat Oct 17, 8:04am

Sat Oct 17, 7:04am

Sat Oct 17, 6:04am

Sat Oct 17, 5:04am

Sat Oct 17, 4:04am

Sat Oct 17, 3:04am

Sat Oct 17, 2:04am

Sat Oct 17, 1:05am

Sat Oct 17, 12:04am

Fri Oct 16, 11:05pm

Fri Oct 16, 10:04pm

Fri Oct 16, 9:05pm

Fri Oct 16, 8:04pm

Fri Oct 16, 7:05pm

Fri Oct 16, 6:04pm

Fri Oct 16, 5:04pm

Fri Oct 16, 4:05pm

Fri Oct 16, 3:04pm

Fri Oct 16, 2:04pm

Fri Oct 16, 1:04pm

Fri Oct 16, 12:04pm

Fri Oct 16, 11:05am

Fri Oct 16, 10:04am

Fri Oct 16, 9:04am

Fri Oct 16, 8:04am

Fri Oct 16, 7:04am

Fri Oct 16, 6:04am

Fri Oct 16, 5:04am

Fri Oct 16, 4:04am

Fri Oct 16, 3:04am

Fri Oct 16, 2:04am

Fri Oct 16, 1:04am

Fri Oct 16, 12:04am

Thu Oct 15, 11:04pm

Thu Oct 15, 9:05pm

Meta data:

ID: e5089348-acc8-4153-a450-7cdacbfc897f
Link: https://api.weather.gov/products/e5089348-acc8-4153-a450-7cdacbfc897f